TimeAKST,TemperatureF,Dew PointF,Humidity,Sea Level PressureIn,VisibilityMPH,Wind Direction,Wind SpeedMPH,Gust SpeedMPH,PrecipitationIn,Events,Conditions,WindDirDegrees,DateUTC
12:55 AM,7.7,-5.4,55,29.77,10.0,ENE,10.4,-,N/A,,Clear,70,2012-12-23 09:55:00
1:55 AM,7.3,-5.6,56,29.77,10.0,ENE,9.2,-,N/A,,Clear,60,2012-12-23 10:55:00
2:55 AM,7.2,-5.8,55,29.75,10.0,ENE,9.2,-,N/A,,Clear,70,2012-12-23 11:55:00
3:55 AM,6.8,-6.0,56,29.75,10.0,ENE,8.1,-,N/A,,Clear,70,2012-12-23 12:55:00
4:55 AM,6.1,-6.5,56,29.75,10.0,ENE,9.2,-,N/A,,Clear,70,2012-12-23 13:55:00
5:55 AM,3.6,-8.3,58,29.74,10.0,East,5.8,-,N/A,,Clear,80,2012-12-23 14:55:00
6:55 AM,5.2,-8.5,53,29.72,10.0,East,8.1,-,N/A,,Clear,90,2012-12-23 15:55:00
7:55 AM,3.2,-9.9,54,29.71,10.0,East,6.9,-,N/A,,Clear,100,2012-12-23 16:55:00
8:55 AM,3.9,-8.1,57,29.70,10.0,East,9.2,-,N/A,,Clear,80,2012-12-23 17:55:00
9:55 AM,4.5,-7.2,58,29.70,10.0,ENE,10.4,-,N/A,,Clear,70,2012-12-23 18:55:00
10:55 AM,4.3,-6.9,60,29.70,10.0,East,8.1,-,N/A,,Clear,80,2012-12-23 19:55:00
11:55 AM,5.7,-6.5,57,29.70,10.0,Variable,6.9,-,N/A,,Clear,0,2012-12-23 20:55:00
12:55 PM,5.0,-5.4,62,29.68,10.0,East,10.4,-,N/A,,Scattered Clouds,80,2012-12-23 21:55:00
1:55 PM,5.0,-4.9,64,29.68,10.0,ENE,8.1,-,N/A,,Overcast,70,2012-12-23 22:55:00
2:55 PM,4.1,-6.5,61,29.67,10.0,ENE,8.1,-,N/A,,Partly Cloudy,70,2012-12-23 23:55:00
3:55 PM,3.7,-6.7,62,29.68,10.0,East,4.6,-,N/A,,Clear,80,2012-12-24 00:55:00
4:55 PM,4.3,-5.8,63,29.65,10.0,ENE,9.2,-,N/A,,Clear,70,2012-12-24 01:55:00
5:55 PM,4.3,-6.5,61,29.65,10.0,East,9.2,-,N/A,,Clear,90,2012-12-24 02:55:00
6:55 PM,5.2,-7.1,57,29.64,10.0,ENE,12.7,-,N/A,,Clear,60,2012-12-24 03:55:00
7:55 PM,5.0,-6.5,59,29.64,10.0,ENE,12.7,-,N/A,,Clear,60,2012-12-24 04:55:00
8:55 PM,5.0,-6.7,59,29.63,10.0,NE,8.1,-,N/A,,Clear,50,2012-12-24 05:55:00
9:55 PM,4.1,-7.2,59,29.63,10.0,ENE,6.9,-,N/A,,Clear,60,2012-12-24 06:55:00
10:55 PM,4.5,-6.9,59,29.62,10.0,East,11.5,-,N/A,,Clear,80,2012-12-24 07:55:00
11:55 PM,4.8,-6.5,60,29.61,10.0,East,8.1,-,N/A,,Clear,80,2012-12-24 08:55:00